This is the latest recevied weather packets stored in our database for station/object UA1CAS-13. If no packets are shown the sender has not sent any weather packets the latest 10 day(s).
| Time | Temp. | Humidity | Pressure | Rain* | Wind** | Luminosity | Snow |
|---|---|---|---|---|---|---|---|
| 1778197819 | 5° C | 67% | 1015 hPa | - | - | - | - |
| 1778196918 | 5° C | 67% | 1015 hPa | - | - | - | - |
| 1778196017 | 5° C | 66% | 1015 hPa | - | - | - | - |
| 1778195116 | 5.56° C | 64% | 1015 hPa | - | - | - | - |
| 1778194214 | 5.56° C | 64% | 1015 hPa | - | - | - | - |
| 1778193313 | 5.56° C | 62% | 1015 hPa | - | - | - | - |
| 1778192412 | 5.56° C | 63% | 1015 hPa | - | - | - | - |
| 1778191511 | 5.56° C | 62% | 1015 hPa | - | - | - | - |
| 1778190610 | 6.11° C | 61% | 1015 hPa | - | - | - | - |
| 1778189709 | 6.11° C | 60% | 1015 hPa | - | - | - | - |
| 1778188808 | 6.11° C | 64% | 1015 hPa | - | - | - | - |
| 1778187907 | 5.56° C | 66% | 1015 hPa | - | - | - | - |
| 1778187006 | 5.56° C | 68% | 1015 hPa | - | - | - | - |
| 1778186105 | 5.56° C | 67% | 1015 hPa | - | - | - | - |
| 1778185204 | 5.56° C | 66% | 1014 hPa | - | - | - | - |
| 1778184303 | 6.11° C | 63% | 1014 hPa | - | - | - | - |
| 1778183402 | 5.56° C | 59% | 1014 hPa | - | - | - | - |
| 1778182501 | 6.11° C | 57% | 1014 hPa | - | - | - | - |
| 1778181599 | 6.67° C | 57% | 1014 hPa | - | - | - | - |
| 1778180699 | 7.22° C | 56% | 1014 hPa | - | - | - | - |
| 1778179797 | 7.22° C | 49% | 1014 hPa | - | - | - | - |
| 1778178896 | 8.89° C | 50% | 1014 hPa | - | - | - | - |
| 1778177994 | 8.33° C | 45% | 1014 hPa | - | - | - | - |
| 1778177093 | 8.89° C | 41% | 1014 hPa | - | - | - | - |
| 1778176192 | 10.56° C | 42% | 1014 hPa | - | - | - | - |
* Rain since midnight (hover to see other rain measurements)
** Current wind speed in m/s (hover to see current wind gust speed)